Flag for Germany Weather past 2 weeks in Aalen, Baden-Württemberg, Germany

Now
58 °F

Fog.


Feels Like: 59 °F
Forecast: 54 / 77 °F
Wind: 3 mph from Northwest

Location: Stoetten

Current Time: Jul 31, 2014 at 7:22:39 AM

Latest Report: Jul 31, 2014 at 7:00 AM


Visibility: 2 mi

Pressure: 29.98 "Hg

Humidity: 98%

Dew point: 58 °F

Location of AalenLocation

Historic Weather in Aalen — Graph

°F

Aalen temperature yesterday

Maximum temperature yesterday: 65 °F (at 5:00 PM)
Minimum temperature yesterday: 58 °F (at 7:00 AM)
Average temperature yesterday: 60 °F

Past Weeks' High & Low Weather Summary

 TemperatureHumidityPressure
High85 °F (Jul 19, 5:00 PM)100% (Jul 21, 12:00 AM)30.18 "Hg (Jul 21, 12:00 AM)
Low57 °F (Jul 29, 4:00 AM)31% (Jul 18, 4:00 PM)29.72 "Hg (Jul 28, 6:00 PM)
Average66 °F75%29.92 "Hg
* Reported Jul 16 6:00 AM — Jul 31 6:00 AM, Aalen, Weather by CustomWeather, © 2014

Note: Actual official high and low records may vary slightly from our data, if they occured in-between our weather recording intervals... More about our weather records

Advertising

Aalen weather history for previous 24 hours

 ConditionsComfort  
Time TempWeatherWind HumidityBarometerVisibility
6:00 AM
Jul 31
58 °FFog.5 mph99%29.97 "Hg1 mi
5:00 AM58 °FLow clouds.5 mph100%29.96 "Hg0 mi
4:00 AM58 °FFog.5 mph99%29.96 "Hg1 mi
3:00 AM58 °FLow clouds.6 mph99%29.94 "Hg1 mi
2:00 AM59 °FFog.5 mph98%29.95 "Hg2 mi
1:00 AM59 °FFog.5 mph98%29.94 "Hg2 mi
12:00 AM59 °FFog.8 mph98%29.93 "Hg2 mi
11:00 PM
Jul 30
59 °FLow clouds.9 mph99%29.92 "Hg2 mi
10:00 PM60 °FLow clouds.7 mph100%29.89 "Hg1 mi
9:00 PM61 °FLow clouds.7 mph100%29.87 "Hg2 mi
8:00 PM62 °FLow clouds.7 mph99%29.85 "Hg2 mi
7:00 PM62 °FLow clouds.8 mph99%29.82 "Hg2 mi
6:00 PM62 °FLow clouds.7 mph99%29.82 "Hg2 mi
5:00 PM65 °FLow clouds.6 mph98%29.80 "Hg7 mi
4:00 PM65 °FLight rain. Low clouds.5 mph99%29.80 "Hg2 mi
3:00 PM62 °FLight rain. Low clouds.5 mph100%29.81 "Hg1 mi
2:00 PM62 °FLight rain. Dense fog.5 mph100%29.80 "Hg0 mi
1:00 PM61 °FLight rain. Dense fog.5 mph100%29.80 "Hg0 mi
12:00 PM61 °FFog.5 mph100%29.80 "Hg0 mi
11:00 AM60 °FRain. Dense fog.3 mph100%29.79 "Hg0 mi
10:00 AM60 °FDrizzle. Dense fog.5 mph100%29.78 "Hg0 mi
9:00 AM59 °FFog.5 mph100%29.78 "Hg0 mi
8:00 AM58 °FRain. Dense fog.5 mph100%29.78 "Hg0 mi
7:00 AM58 °FDrizzle. Dense fog.5 mph100%29.76 "Hg0 mi
Weather by CustomWeather, © 2014

See weather overviewHow to use our weather pages